リニア彗星

C/1998 Q1 ( LINEAR )

English version
Home page
Updated on January 16, 1999

---------------------------------------------------------------------

・ プロフィール

発見日 1998年8月24日
発見光度 17.7等
発見者 Lincoln Laboratory Near-Earth Asteroid Research project

・ 軌道要素

   The following improved orbital elements by Kenji Muraoka, are 
  from 136 observations 1998 Aug. 24  to  Nov. 22, perturbations 
  by 9 Planets, Moon and 5 minor planets were taken into account.
   The mean residual is +/- 0.58 arc seconds.

      Epoch  =  1998 July  6.0  TT       JDT = 2451000.5
          T  =  1998 June 29.50742       +/- 0.00056 (m.e.) TT
       Peri. =  134.73245                +/- 0.00051
       Node  =  159.78466                +/- 0.00037   (2000.0)
       Incl. =   32.30563                +/- 0.00033
          q  =    1.5778842              +/- 0.0000096 AU
          e  =    0.9954500              +/- 0.0000244
        1/a  =   +0.0028836              +/- 0.0000154 1/AU
        ( P  =   6458 years )
  orig. 1/a  =   +0.003010   1/AU 
  fut.  1/a  =   +0.004440   1/AU 

・ 星図

・ 光度変化

        m1 = 13.5 + 5 logΔ + 10.0 log r

---------------------------------------------------------------------

軌道要素は村岡健治氏の計算によるものです。
星図は StellaNavigator Ver.2.0 for Windows (アストロアーツ 編著 / アスキー出版局刊) で作成したものです。
光度グラフはComet for Windowsで作成したものです。

---------------------------------------------------------------------

Copyright(C) Seiichi Yoshida (comet@aerith.net). All rights reserved.